Location: Newark
(7.1028°S, 35.3258°W)
Time: 08:48:19
(UTC+00:00)

Vanguard 3 - Pass Details

Date: 22 February 2020
Orbit: 508 x 3263 km, 33.4° (Epoch: 08 April)

Event Time Altitude Azimuth Distance (km) Brightness Sun altitude
Rises 16:22:27 0° 344° (NNW) 5,236 11.3 63.2°
Reaches altitude 10° 16:27:56 10° 5° (N) 4,793 11.1 61.9°
Maximum altitude 16:35:41 16° 38° (NE) 4,930 11.1 60.0°
Drops below altitude 10° 16:44:59 10° 69° (ENE) 5,956 11.3 57.7°
Sets 16:53:15 0° 87° (E) 7,206 11.6 55.7°
